Theta_e
304 298 295 295 297 298 300 300 301 299 298 298 297 297 296 297 297 299 301 302 303 301 300 301 301 301 302 304 314 321 322 322 322 323 324 324 324 324 326 326 328 329 331 333 330 331 333 336 336 338 335 336 339 340 340 342 342 336 333 333 332 336 341 341 339 339 338 337 336 336 334 332 334 333 334 335 336 336 337 337 335 335 336 336 337 337
302 297 297 299 300 301 301 302 301 300 299 297 297 296 296 297 296 300 300 301 304 302 300 302 301 301 303 306 315 320 320 318 320 321 323 324 324 325 326 326 327 330 332 331 330 330 333 334 337 337 336 335 335 336 339 340 339 335 337 338 342 342 344 343 341 340 339 338 334 335 333 333 331 331 331 332 335 336 337 337 337 336 336 336 336 336
297 295 299 301 303 302 302 301 301 299 298 298 297 296 296 296 299 301 300 302 303 302 300 301 300 301 304 309 315 317 318 319 321 322 324 324 324 325 326 326 328 329 329 330 330 331 332 333 333 334 334 334 336 338 339 340 341 337 338 341 343 342 344 342 342 340 338 339 339 337 335 333 332 335 335 332 333 334 332 337 336 337 337 335 334 335
294 296 301 302 303 301 301 300 300 300 300 297 297 296 294 298 296 294 301 302 302 301 301 301 299 302 308 314 315 317 317 319 322 323 324 325 324 325 326 327 327 328 328 327 329 330 331 332 333 331 332 334 335 337 340 338 340 335 339 339 338 338 343 341 341 340 342 341 341 341 340 338 335 333 335 335 333 331 330 329 332 334 336 335 334 333
296 300 303 303 301 300 299 300 299 297 295 298 299 297 296 297 297 298 299 302 303 302 302 300 299 302 306 305 311 318 322 321 321 321 322 324 326 328 329 329 329 328 329 328 329 330 331 332 332 331 330 330 333 336 337 339 339 337 338 336 339 339 344 342 341 341 342 341 339 339 339 338 336 334 332 330 327 329 328 328 330 330 333 332 332 334
297 301 303 300 299 299 299 298 298 298 294 296 299 300 299 300 299 298 301 300 299 299 302 299 293 295 303 304 305 315 317 316 320 320 320 323 325 326 326 327 328 330 330 330 330 330 332 328 327 327 326 328 333 336 338 341 341 341 340 336 338 344 345 342 341 341 340 336 334 332 330 328 328 328 328 326 325 326 326 323 328 328 330 330 332 332
298 303 300 299 299 298 298 297 299 299 295 295 296 301 301 300 300 299 299 299 294 292 299 303 293 289 300 301 307 313 313 314 318 319 320 322 323 324 325 327 327 327 328 331 332 331 331 332 327 329 329 328 330 337 340 341 342 338 340 343 342 342 344 343 341 340 339 336 334 334 331 330 329 326 328 329 329 328 325 328 328 327 331 330 331 332
299 298 299 299 299 298 297 295 300 299 297 295 304 301 301 300 299 299 299 298 297 301 301 301 299 294 292 298 308 312 311 312 315 316 319 321 323 324 326 327 328 328 328 329 330 331 332 333 330 328 329 330 334 338 339 340 341 341 339 340 343 340 340 344 341 340 339 336 334 334 332 330 329 329 328 330 329 329 327 327 327 328 328 330 330 330
300 298 298 298 298 297 296 298 301 301 298 298 302 301 300 300 301 300 299 298 299 298 294 296 300 293 293 299 307 311 307 309 311 315 318 320 322 324 326 327 328 329 329 329 328 330 331 332 334 333 332 336 337 337 336 337 339 340 342 342 341 342 342 343 342 340 339 337 335 335 332 329 329 329 329 328 327 326 327 327 327 327 325 328 331 331
301 300 300 300 298 296 299 300 301 301 297 302 302 302 302 301 300 301 299 298 298 295 290 295 299 292 292 298 299 305 306 306 308 313 316 319 321 323 325 328 329 329 330 330 330 330 331 333 333 335 336 337 337 338 338 338 337 336 336 337 336 334 337 340 340 341 339 338 336 333 333 331 329 329 327 326 326 326 327 326 327 326 325 325 328 331
300 304 304 300 299 300 301 301 301 302 301 302 302 300 299 299 300 300 300 299 296 288 292 297 299 296 289 296 299 300 302 307 308 311 315 317 319 321 325 327 328 328 329 329 330 330 332 334 334 335 335 336 338 338 337 333 333 333 332 327 324 324 325 327 329 334 338 337 335 332 333 332 331 329 327 326 326 325 325 325 325 325 325 327 328 328
299 300 299 301 303 301 302 299 300 301 302 302 300 298 297 297 299 297 297 298 288 287 295 298 298 298 287 293 300 305 306 308 308 308 309 310 312 317 323 324 326 327 328 328 329 330 331 332 333 334 335 336 334 329 324 324 327 327 325 326 326 325 324 324 326 326 332 334 334 334 334 332 331 330 327 326 325 325 324 324 323 323 324 326 328 327
296 297 300 301 304 301 299 299 299 300 300 300 299 298 292 289 290 286 291 286 287 287 295 298 298 294 292 300 302 305 308 309 312 312 312 311 310 311 315 322 325 327 327 328 329 330 329 330 331 332 333 332 322 323 322 324 326 324 323 325 328 325 324 324 325 328 329 333 334 333 333 333 332 330 327 326 325 324 322 322 322 323 322 323 324 324
295 299 299 299 301 302 301 295 296 295 298 298 296 295 291 286 285 281 286 288 289 294 298 297 299 292 297 301 306 307 310 311 313 314 314 314 315 315 312 318 323 326 326 327 328 329 330 330 330 332 332 328 324 322 322 324 324 325 326 326 324 325 326 327 326 328 329 332 333 333 334 333 331 330 328 326 324 324 323 322 323 322 322 322 323 324
287 290 295 298 295 302 300 299 300 298 298 298 300 297 294 291 287 281 286 283 285 289 294 298 293 290 291 295 305 310 312 313 313 314 315 315 315 317 316 317 322 323 326 327 327 327 328 329 330 330 328 323 322 322 322 324 325 326 324 321 322 323 326 329 327 328 329 331 333 333 334 332 332 330 327 325 325 324 323 322 322 322 322 322 323 323
292 293 298 301 300 302 299 302 303 300 299 300 300 301 295 291 297 288 289 291 289 289 289 292 291 297 297 304 307 311 313 313 314 315 316 315 316 317 316 318 320 323 323 325 325 327 328 329 330 330 325 323 323 324 324 324 324 325 325 323 323 323 325 329 328 328 330 331 332 333 334 333 332 329 328 325 325 325 325 323 322 322 322 323 323 325
293 291 298 298 300 300 301 302 301 303 291 298 298 293 296 302 298 291 290 297 289 289 287 293 294 297 303 303 307 311 310 312 314 314 315 315 316 318 317 318 320 322 322 324 325 325 327 328 328 327 324 325 326 326 325 324 323 325 326 324 326 328 328 328 329 329 331 332 332 333 333 333 332 330 327 324 326 326 326 325 323 323 322 324 325 325
292 292 297 297 295 298 300 301 301 301 301 299 293 297 301 303 301 294 286 288 287 284 286 293 289 292 293 290 304 306 309 310 311 313 314 317 318 317 318 319 320 321 322 324 324 324 323 324 323 324 323 325 327 327 326 325 325 327 327 325 325 325 325 326 327 329 330 331 331 332 332 333 332 330 328 326 327 327 326 325 324 325 323 323 324 325
298 290 295 297 298 298 299 300 298 300 301 298 297 304 294 289 288 294 290 282 283 282 285 288 292 292 294 294 299 302 306 309 311 313 314 314 315 316 318 318 319 320 321 322 321 320 321 322 321 322 323 324 327 326 328 328 326 327 329 331 329 328 327 327 328 327 328 329 330 331 332 332 330 330 329 327 327 327 327 326 327 326 325 324 324 323
300 290 293 297 297 297 298 298 291 296 299 299 301 299 301 298 293 289 290 291 290 284 284 285 291 287 296 298 301 303 308 309 311 312 311 312 314 315 317 318 317 319 320 318 318 319 320 321 320 320 321 322 324 325 328 325 323 324 326 325 325 327 328 327 326 326 326 327 329 329 331 331 330 330 328 326 327 325 327 324 322 324 326 325 323 324
293 299 288 294 297 297 292 296 294 296 294 295 295 295 296 297 300 298 298 292 289 286 286 285 284 289 297 302 304 306 309 310 311 311 311 312 313 315 316 316 318 318 319 319 318 318 318 320 319 320 322 322 323 325 326 324 323 324 327 327 324 324 326 328 329 328 328 328 328 328 329 331 331 331 329 327 327 325 325 323 324 324 326 325 324 324
293 293 288 293 293 292 294 298 296 296 298 297 296 294 295 293 291 287 286 296 294 289 285 285 283 292 299 304 304 305 308 312 312 312 311 311 312 314 315 316 317 318 320 320 321 320 320 321 319 320 321 321 321 322 323 322 322 323 325 326 326 325 325 327 328 328 328 328 329 329 330 331 332 331 331 330 328 328 326 323 325 327 327 327 327 325
301 297 293 289 292 294 295 296 298 298 298 297 298 296 298 297 296 291 284 288 293 292 293 291 287 290 302 303 306 306 307 309 314 313 311 312 313 314 315 317 319 319 318 320 321 321 323 323 322 320 320 321 321 321 322 322 322 323 325 325 326 325 326 327 328 328 329 329 329 328 330 331 331 330 331 331 329 327 324 323 325 327 326 326 325 326
307 291 290 291 295 295 297 297 298 297 297 296 297 298 298 295 296 294 292 294 290 291 288 288 285 290 301 305 307 308 308 309 313 314 313 313 313 314 315 315 316 318 319 320 321 322 323 322 322 321 322 322 322 323 323 323 323 324 325 325 325 326 327 328 328 328 328 328 328 329 328 329 329 330 330 330 329 327 327 326 324 323 326 326 326 324
291 295 293 289 288 291 292 295 295 297 297 296 296 298 297 297 297 299 297 298 289 292 290 288 283 291 300 306 307 308 307 308 312 314 315 312 313 313 315 316 317 318 318 319 319 319 320 320 321 321 322 322 322 322 323 323 324 325 326 326 325 326 327 327 327 326 326 326 327 327 327 328 328 328 329 329 328 329 327 329 325 323 322 326 327 326
293 290 290 286 283 281 281 282 285 288 292 296 295 294 294 295 297 295 289 291 286 291 292 288 287 294 300 304 305 307 308 308 310 312 313 314 313 312 313 314 315 316 316 317 318 318 317 318 318 319 320 320 321 321 321 322 322 323 324 325 326 325 326 327 327 327 326 326 325 325 326 327 328 327 328 328 329 329 329 330 329 327 325 324 325 326
292 294 293 290 288 287 287 290 292 292 294 291 292 294 294 295 297 298 296 290 287 292 290 292 294 293 296 300 301 304 305 305 307 310 310 310 311 312 313 314 314 314 315 315 316 316 316 315 316 317 318 319 320 320 320 320 321 321 322 324 325 326 326 327 328 327 327 326 326 325 325 325 326 327 326 327 328 328 327 328 329 328 325 325 325 326
294 288 289 291 291 292 293 292 293 294 293 292 292 293 294 295 296 297 291 290 298 293 287 297 299 296 295 298 300 301 302 304 307 308 309 309 309 310 311 312 310 312 313 314 313 313 312 312 313 314 316 318 318 320 320 320 320 321 322 322 324 324 325 325 326 326 326 326 326 326 327 328 327 327 327 327 326 326 326 326 327 327 326 326 325 325
294 287 290 291 289 292 293 294 295 293 293 293 293 294 294 296 297 294 291 294 298 291 288 297 300 295 295 298 298 298 300 301 303 305 308 309 309 310 310 309 309 310 309 308 308 309 310 309 310 311 312 314 317 319 320 320 321 321 321 322 322 323 324 325 325 325 325 325 325 326 326 327 327 327 326 326 326 325 325 326 326 327 327 328 328 327
297 291 292 292 289 290 291 292 294 293 292 292 292 293 294 295 295 296 295 297 298 297 298 298 296 293 295 297 298 298 301 302 303 306 307 307 306 306 306 307 307 307 307 306 306 307 308 308 308 308 309 310 311 311 312 315 318 320 320 321 322 322 323 324 323 323 323 322 323 324 325 326 326 325 326 325 324 325 325 326 328 329 329 328 328 328
299 291 293 293 290 289 291 292 293 292 292 291 292 293 294 294 294 295 295 295 297 297 297 296 293 290 296 300 298 299 302 302 302 303 305 306 305 304 304 304 305 305 306 306 307 307 307 307 307 307 308 309 309 309 310 311 313 315 317 319 320 321 322 323 322 322 321 321 322 323 324 324 324 325 325 324 325 325 324 324 326 328 327 327 326 327
298 292 295 294 288 287 290 290 290 292 291 290 290 292 293 293 290 291 289 291 294 293 295 294 291 289 296 299 298 298 297 297 296 298 300 302 303 303 303 303 304 304 304 305 305 306 306 306 306 306 306 307 308 308 309 309 309 310 310 311 312 316 319 322 322 322 322 322 323 322 322 322 322 322 323 324 324 324 324 324 324 325 326 326 326 327
297 292 290 291 287 288 291 290 291 291 290 285 287 292 291 291 290 289 290 291 291 293 293 289 290 295 298 299 295 294 293 292 292 294 294 294 296 297 298 300 302 303 303 303 303 303 304 304 305 306 306 306 306 306 307 308 308 309 309 310 311 311 312 312 313 315 317 320 321 322 324 323 323 323 324 324 324 324 324 324 323 324 325 324 322 323
298 296 292 295 287 288 289 291 291 287 280 283 289 289 293 291 289 288 287 289 291 293 290 293 293 295 297 298 295 293 291 290 291 292 295 295 294 292 295 297 297 299 300 300 301 301 301 302 303 304 305 305 306 306 307 308 308 308 310 310 310 311 310 311 311 312 312 313 315 316 317 318 319 320 322 323 323 323 323 324 324 325 325 322 320 322
294 295 293 296 289 287 289 289 285 279 283 289 293 294 294 294 293 289 288 290 291 292 292 292 292 293 293 293 293 292 292 292 292 291 292 295 295 295 294 293 294 296 298 299 299 301 301 301 302 303 303 303 303 305 306 305 307 308 308 309 309 309 310 310 310 311 311 311 312 312 312 312 312 314 316 320 322 323 323 323 324 323 323 322 321 320
292 292 291 287 290 290 287 286 278 281 285 289 291 294 296 295 294 293 289 291 292 293 293 292 291 291 291 290 291 292 291 291 291 292 292 293 294 294 291 290 291 294 294 296 297 299 300 301 301 302 303 304 303 303 303 303 305 306 306 307 307 308 308 309 309 310 310 310 310 311 311 311 311 312 312 314 316 318 319 321 321 321 321 320 320 321
297 296 292 288 290 284 286 286 284 287 287 286 286 288 291 289 291 291 285 287 292 294 294 292 292 292 292 292 293 293 293 293 291 291 295 293 293 293 295 296 296 293 290 294 296 296 298 300 300 301 303 303 303 302 303 303 304 304 304 304 305 305 306 307 307 307 309 310 310 311 311 310 310 310 312 312 312 312 314 317 318 319 319 318 318 319
298 291 292 289 284 288 287 285 283 282 281 284 289 291 292 292 292 293 291 285 292 293 295 293 292 292 293 293 293 294 295 293 289 289 293 295 296 297 297 297 297 299 298 298 298 299 300 300 301 301 302 301 302 302 303 303 303 304 304 303 303 304 305 305 305 306 306 307 309 310 311 311 310 310 310 311 310 310 313 316 318 318 317 316 316 315
295 296 292 290 286 286 285 283 282 280 281 287 290 291 293 292 293 293 290 284 289 292 294 294 292 293 293 293 293 295 294 291 289 291 294 295 296 296 296 297 297 298 298 298 298 298 299 300 300 300 301 301 301 302 303 302 303 302 302 303 303 303 303 304 304 304 305 306 307 308 309 311 311 311 311 311 311 313 313 315 316 316 317 315 315 315
292 291 290 287 285 286 285 283 282 284 282 287 290 291 291 295 292 291 281 282 288 291 292 293 292 292 293 294 295 294 292 291 289 291 294 295 296 296 296 295 296 296 296 298 298 298 299 299 299 300 300 300 300 301 302 301 301 301 301 302 302 302 303 304 304 304 305 305 306 307 308 309 310 310 311 311 312 313 314 314 314 315 313 313 312 310
287 287 288 285 286 284 283 284 285 284 286 288 289 291 291 292 291 283 280 285 291 292 292 293 293 293 294 293 294 290 291 292 293 295 296 296 295 295 296 297 296 296 296 296 296 296 297 297 298 297 298 299 299 300 301 301 301 300 301 301 301 301 303 304 305 305 305 305 305 305 306 307 308 309 310 310 311 313 312 313 313 313 313 311 311 310
285 285 286 287 285 284 285 282 283 285 287 291 292 292 293 290 282 283 287 293 293 292 294 294 293 294 294 293 293 292 292 294 295 296 295 295 295 295 295 295 296 296 297 296 295 295 296 296 297 297 298 298 298 299 299 299 299 299 300 300 300 302 304 304 304 304 304 304 304 305 306 306 308 309 310 310 310 311 312 312 312 313 313 311 311 311
284 283 284 284 285 284 285 282 280 278 285 291 292 291 292 286 285 289 292 293 294 293 294 294 294 294 295 293 294 294 294 294 294 294 295 295 294 294 294 295 295 294 294 295 295 295 294 295 295 295 296 297 297 298 298 298 298 299 300 300 301 302 303 304 303 303 303 303 303 304 305 306 307 307 309 310 310 309 309 311 312 311 311 311 312 313
289 284 284 284 286 282 282 280 280 285 288 293 291 286 289 291 293 294 293 291 294 295 294 294 294 295 295 295 294 294 294 294 294 294 294 294 294 294 294 294 294 294 294 294 294 294 293 294 294 295 296 296 297 297 297 297 296 297 297 298 301 302 302 302 302 302 302 303 303 303 303 304 305 306 307 308 309 309 309 309 310 311 311 310 309 309
289 287 287 284 287 284 283 284 286 290 292 294 294 292 294 295 296 296 295 294 293 294 296 294 293 294 295 294 294 293 292 292 292 292 292 292 292 292 292 292 292 292 293 293 293 294 293 293 294 294 295 296 296 297 297 297 296 296 296 298 300 300 300 301 301 301 301 301 302 302 303 304 304 305 306 306 306 307 306 308 309 308 311 311 309 308
290 290 293 290 285 289 290 290 291 291 292 293 294 295 294 294 296 296 295 293 294 294 295 293 293 293 293 293 292 292 291 291 290 291 291 291 291 291 292 292 292 293 293 293 293 293 293 294 294 294 294 295 296 296 296 296 296 295 296 298 298 298 298 299 299 299 300 300 301 301 302 302 302 304 305 305 305 306 306 307 306 307 309 309 309 308
290 290 290 286 289 287 281 290 289 289 291 292 291 293 294 294 293 293 292 292 292 292 292 292 292 291 292 292 291 290 290 289 289 289 290 290 290 290 290 291 292 292 293 292 293 293 293 293 293 293 294 294 295 296 296 296 296 296 297 297 297 297 297 297 297 297 298 299 300 301 301 301 301 301 302 304 305 305 305 305 306 306 306 308 309 309
286 293 288 288 287 285 285 289 291 292 292 293 292 290 290 290 291 292 291 291 291 291 291 291 291 290 291 290 289 289 289 289 288 288 288 288 289 289 290 291 292 292 293 293 294 293 293 293 293 293 293 293 294 295 296 296 296 297 297 297 298 298 298 297 296 296 296 297 298 299 300 301 293 297 300 301 302 302 303 304 305 305 305 306 307 307
289 291 284 288 286 288 290 291 291 292 292 292 293 294 293 293 292 292 293 293 293 292 292 292 292 292 291 290 290 290 290 290 290 290 289 289 290 290 291 291 292 293 293 293 293 292 292 292 291 292 292 293 294 295 296 296 297 297 297 297 297 297 297 296 295 296 297 297 297 297 298 298 300 300 300 301 301 302 302 304 305 305 306 308 310 308
289 286 288 287 284 284 284 287 290 284 284 289 291 293 294 294 294 293 293 293 293 292 292 292 292 292 292 292 291 291 290 290 291 291 290 290 290 291 291 292 293 293 293 293 293 293 293 293 293 293 293 294 295 295 295 296 297 297 297 297 297 297 296 295 295 295 295 297 297 297 297 297 298 299 299 300 300 301 302 292 289 300 306 307 297 290
288 288 288 285 284 283 289 290 292 291 291 292 293 294 294 295 294 293 292 292 293 293 293 292 291 291 291 291 292 291 291 290 290 291 290 290 290 291 291 291 292 292 292 293 293 293 294 294 294 294 294 294 295 295 295 296 297 297 297 297 297 297 296 295 294 294 294 294 295 295 296 297 297 298 299 300 300 301 300 303 299 285 286 289 290 289
Wind_Speed
6 8 10 9 8 9 10 10 4 4 3 3 3 5 7 7 7 8 3 4 0 6 10 10 10 11 12 11 10 10 10 9 8 9 7 8 8 8 8 8 7 8 8 11 13 10 10 10 10 8 9 10 10 9 9 9 8 10 11 11 12 12 11 10 10 9 8 7 7 6 6 6 6 5 5 4 4 3 4 4 4 4 3 3 3 3
6 9 9 9 5 7 5 0 2 3 3 7 6 8 7 8 7 8 5 3 2 6 8 11 11 13 10 8 10 10 10 11 10 9 8 8 8 8 8 9 9 8 8 12 11 10 10 9 10 9 8 10 11 10 10 10 11 12 11 10 9 8 9 10 9 8 7 7 6 6 6 6 6 6 5 5 5 4 5 4 4 4 3 4 4 3
8 10 7 6 5 3 2 3 4 5 6 6 8 7 7 8 7 9 3 3 3 5 8 6 12 11 6 8 9 10 9 8 9 8 8 8 8 7 7 9 9 10 10 9 11 12 10 9 11 8 7 10 12 12 11 10 9 8 8 8 7 7 8 9 9 8 7 6 6 6 7 7 6 5 5 5 5 5 6 4 4 4 3 3 4 4
8 10 9 6 5 4 4 5 5 6 7 8 8 7 8 6 9 7 7 5 3 6 3 6 11 6 5 5 8 6 7 7 6 8 8 8 8 7 7 8 10 11 11 10 11 13 12 10 8 6 6 8 11 10 10 10 11 10 9 8 7 5 8 9 9 7 8 8 7 8 7 6 6 7 6 6 5 5 5 5 3 4 3 2 3 4
6 7 2 8 6 8 7 7 8 8 8 10 9 8 9 6 10 6 7 3 3 3 6 6 9 7 8 9 9 6 3 4 6 7 8 7 7 6 5 7 9 11 11 10 11 12 13 11 8 4 3 7 10 11 11 11 10 10 12 9 11 10 10 9 10 9 9 9 9 8 8 8 8 7 7 6 6 5 4 4 4 4 3 3 3 3
8 7 5 8 9 10 8 7 10 10 9 9 11 10 8 4 4 4 4 5 6 6 8 10 8 9 10 11 10 7 7 8 8 8 9 9 8 7 8 8 9 8 9 10 11 11 12 11 9 10 10 11 11 12 12 11 11 10 12 15 12 10 8 10 12 11 10 9 9 10 9 9 8 7 7 6 6 5 4 5 4 5 4 4 3 2
3 7 7 6 9 10 9 8 10 12 9 8 11 14 13 8 6 5 4 6 8 8 9 5 8 6 8 10 9 9 9 10 8 10 10 10 9 9 7 8 9 10 9 8 9 9 10 11 12 11 10 11 14 13 11 10 10 11 9 10 12 9 9 9 12 13 10 10 10 10 9 8 8 8 6 6 5 5 5 5 5 5 4 4 4 3
7 6 6 7 8 8 8 9 8 11 8 7 8 12 10 11 9 8 7 8 4 6 5 7 6 5 10 10 9 9 10 10 11 10 10 10 10 9 8 8 8 9 10 9 8 9 9 9 14 13 14 15 14 10 9 9 8 8 8 9 10 10 10 10 11 13 11 11 10 10 8 7 7 7 8 8 6 6 5 6 6 6 5 4 4 4
11 8 8 10 10 8 8 8 10 14 11 4 3 3 8 9 8 8 8 7 3 4 7 10 7 6 8 8 6 8 10 11 11 11 11 10 10 9 9 8 9 8 9 9 9 9 10 10 10 11 14 13 11 10 9 7 6 5 5 5 8 8 9 9 12 12 11 10 10 8 7 8 7 9 8 8 7 7 6 6 5 5 6 5 4 4
5 7 11 12 8 8 3 2 4 11 13 5 4 3 3 3 3 7 8 7 5 7 8 9 6 8 8 9 8 8 6 9 8 8 9 9 9 8 8 8 9 9 9 9 8 10 10 10 9 10 10 10 9 7 8 7 7 6 4 4 4 7 6 3 9 8 10 10 9 8 8 9 9 8 8 8 8 7 6 6 6 5 5 5 5 5
4 2 5 6 8 3 4 4 1 10 3 2 6 8 7 6 6 6 6 6 5 7 9 7 4 6 6 10 9 8 5 3 9 8 6 7 7 8 7 8 8 8 9 8 9 9 10 9 10 10 10 10 8 6 8 9 10 7 9 12 13 8 8 11 11 7 7 8 8 8 9 9 9 10 9 9 8 7 7 6 6 5 5 5 5 5
7 5 6 5 5 1 2 3 2 1 2 7 7 9 8 7 5 7 7 6 7 8 6 5 5 5 8 9 7 7 5 4 2 5 5 4 4 4 6 6 7 8 8 9 9 10 11 10 10 10 10 9 5 13 15 7 6 8 8 8 8 10 11 10 4 8 7 5 7 8 9 9 9 9 8 9 9 8 8 7 6 6 5 6 5 5
10 9 9 6 4 7 7 6 5 6 6 8 8 9 9 7 5 7 7 8 9 6 4 3 4 7 10 5 9 8 6 4 3 3 2 0 1 2 3 5 6 7 8 9 10 10 11 11 11 11 9 8 15 12 10 4 4 8 7 5 4 6 7 9 10 6 8 4 6 7 8 9 8 8 9 9 9 8 8 7 7 6 6 6 6 5
8 11 11 9 6 9 8 9 8 8 9 11 11 9 9 8 7 7 9 6 9 5 2 2 1 9 4 7 5 7 6 4 4 3 2 2 2 1 2 5 6 6 7 8 9 9 10 9 8 7 4 7 14 14 10 6 4 6 7 10 8 5 8 6 7 8 7 6 6 7 7 8 8 7 7 7 8 8 7 7 7 7 6 6 6 6
8 11 11 10 9 11 12 11 7 8 11 11 12 10 9 8 7 6 8 8 8 5 7 2 5 7 12 3 5 6 5 5 5 4 3 2 2 2 2 4 6 6 6 7 7 7 8 8 7 6 12 17 14 11 12 12 10 6 7 10 10 5 5 9 10 9 10 8 7 7 5 6 7 7 6 6 7 7 8 7 7 7 6 6 6 6
12 7 6 10 4 9 12 12 7 8 9 9 6 6 7 7 4 7 2 5 4 5 5 6 3 1 2 4 4 4 4 6 6 7 6 6 5 5 5 5 5 6 7 6 6 7 7 7 7 9 14 15 14 13 9 14 12 10 9 9 9 11 13 11 11 10 9 7 6 6 6 6 6 6 6 6 7 7 7 8 8 8 7 7 7 6
5 9 9 5 5 6 7 3 8 7 9 8 9 11 5 3 5 1 2 4 1 2 6 4 6 5 3 5 5 4 4 6 6 7 7 8 7 6 6 6 6 6 7 6 6 7 9 9 10 12 15 13 13 11 10 12 14 9 7 8 9 9 9 10 9 8 7 7 7 7 7 6 7 7 7 7 8 8 7 8 8 7 8 9 7 7
6 6 7 8 11 5 1 5 3 5 6 6 10 8 5 1 4 4 6 4 5 8 4 6 9 8 8 5 5 5 4 6 7 7 8 8 8 8 7 7 6 7 7 8 9 10 11 12 12 12 12 11 11 8 10 10 10 9 9 14 15 12 10 8 8 7 6 6 6 6 7 7 7 7 8 8 8 7 7 7 7 7 7 9 9 7
7 9 7 3 2 6 5 6 7 4 5 5 6 8 10 6 9 8 4 5 7 7 5 5 8 9 9 5 6 5 4 6 7 7 8 9 9 9 9 9 9 8 7 8 9 8 10 10 9 9 11 7 6 5 12 10 10 5 10 11 9 9 8 8 5 5 4 4 3 4 5 7 7 7 8 8 8 8 7 7 6 6 5 7 9 9
4 8 5 3 5 5 7 9 10 9 8 3 1 7 3 4 8 6 6 6 5 6 7 5 9 7 9 2 5 7 4 5 6 7 9 10 9 8 8 8 9 9 9 8 8 8 8 10 4 5 10 9 7 6 3 8 8 6 6 1 3 5 7 6 6 5 5 4 3 3 4 6 7 8 8 9 8 7 6 6 7 6 6 6 7 8
4 0 6 6 4 5 8 9 12 11 10 8 9 10 5 6 3 5 2 8 7 6 6 6 7 7 5 5 6 6 6 6 6 8 7 7 8 8 8 8 9 9 8 8 8 9 9 8 6 4 8 10 8 5 2 4 4 3 3 0 3 2 3 4 5 5 4 4 4 5 6 6 7 8 8 9 9 8 7 6 7 6 5 5 6 8
4 4 8 6 7 8 4 5 6 7 4 9 11 11 10 10 9 10 10 6 8 8 6 6 7 4 5 3 3 4 3 7 8 8 7 8 8 8 8 8 8 8 8 8 9 9 8 8 7 7 9 10 9 8 7 2 1 1 2 4 3 2 2 2 2 2 3 3 4 5 5 6 6 6 7 8 9 8 8 7 6 6 5 5 6 7
3 1 7 5 9 4 7 6 6 4 3 4 5 9 11 10 10 10 10 7 7 7 5 8 7 1 4 3 3 2 3 4 7 9 7 8 8 7 8 8 9 8 8 8 9 10 10 11 11 10 9 10 9 8 8 5 3 2 2 2 1 1 2 3 3 1 1 2 3 4 4 5 5 6 7 8 8 8 9 8 7 6 6 6 6 6
2 2 5 10 2 4 5 2 0 1 2 6 6 2 5 11 10 11 10 4 7 5 7 6 6 3 4 4 4 4 4 5 6 9 8 7 7 7 9 9 9 9 9 9 9 9 9 11 11 10 10 10 9 9 9 7 6 5 4 3 4 4 5 4 3 3 2 2 3 4 4 5 5 6 6 7 7 9 9 8 8 7 7 6 6 7
2 0 5 6 8 8 6 7 6 3 5 6 5 2 3 2 1 1 1 2 7 9 11 8 9 3 4 4 5 6 8 10 10 8 8 8 8 8 9 9 8 9 9 10 10 10 10 10 10 11 10 10 9 8 6 6 6 6 6 4 3 4 4 4 3 3 4 4 4 4 5 6 6 7 6 7 7 8 9 8 8 8 8 7 6 7
4 3 4 9 11 11 11 11 9 8 9 4 3 2 1 3 4 6 8 7 9 7 12 7 3 6 6 6 8 8 9 10 9 9 7 8 10 9 9 9 9 9 9 10 10 11 12 11 10 10 10 9 8 7 6 5 4 3 4 5 3 4 5 4 4 4 3 4 5 5 5 6 6 7 7 6 6 8 8 8 8 8 8 8 8 8
2 2 5 4 5 5 7 7 5 3 4 4 6 3 2 0 3 5 6 8 10 6 8 9 3 11 8 7 9 8 8 9 9 9 10 10 10 9 9 9 9 9 10 10 10 11 11 13 13 12 10 9 8 7 6 5 5 4 3 3 3 3 4 3 3 4 4 4 5 5 6 7 7 7 7 7 5 5 7 8 8 9 9 8 9 9
4 1 3 6 6 5 6 8 8 3 5 4 4 5 3 1 1 4 5 5 8 6 9 7 15 13 9 8 9 9 8 7 7 8 11 11 10 10 9 10 11 11 10 10 12 12 13 13 13 12 11 9 8 9 8 7 6 6 4 5 5 5 4 3 2 3 3 4 5 6 7 7 7 7 7 7 7 7 6 7 8 9 9 9 10 9
8 4 5 6 4 5 5 9 8 8 9 8 9 8 9 7 5 3 5 6 8 3 4 8 11 13 9 8 8 7 6 7 8 8 8 11 11 11 11 11 11 10 11 13 13 12 13 13 12 12 11 11 11 10 9 8 8 7 6 6 5 5 5 4 3 4 4 4 3 3 3 4 3 3 5 7 7 7 6 8 10 9 9 8 8 7
6 4 11 9 10 8 7 7 8 8 6 8 9 10 10 11 10 9 9 9 9 8 8 11 15 13 8 8 7 7 6 8 8 9 9 11 11 11 11 11 12 12 12 13 13 13 13 13 13 13 12 12 11 11 10 8 7 7 7 7 6 6 6 5 4 4 3 3 4 3 3 4 4 4 4 4 5 6 7 8 8 7 7 7 7 7
4 4 10 11 7 5 4 5 5 7 6 4 5 5 6 6 9 8 8 8 6 10 9 11 13 10 7 7 9 7 8 9 9 11 11 10 10 11 12 13 12 13 13 13 13 13 13 13 13 13 13 13 12 11 10 9 9 8 8 6 6 6 4 4 5 5 3 4 3 3 2 2 2 2 3 3 4 4 5 6 6 7 7 7 7 7
2 4 8 7 6 5 4 1 4 2 4 6 7 4 5 5 3 5 4 5 4 5 8 9 7 6 7 8 9 10 10 11 12 11 11 9 10 10 12 12 13 13 13 13 13 13 13 13 13 13 13 12 12 11 10 9 9 9 9 8 7 6 5 5 4 4 4 3 3 2 2 1 2 2 2 3 4 4 5 5 5 6 5 6 7 7
7 7 7 6 8 6 8 4 3 2 3 4 10 2 4 5 6 7 5 6 5 5 2 1 6 8 10 9 11 11 11 11 11 10 11 13 13 13 13 12 11 12 13 13 13 13 13 12 12 12 11 11 10 10 10 9 9 9 8 8 6 6 6 6 5 5 4 3 2 3 2 1 0 0 1 2 3 3 3 4 4 4 5 3 4 6
5 8 6 8 6 3 8 7 6 4 9 7 4 0 2 3 5 5 4 4 5 4 3 6 10 9 9 10 11 12 12 11 11 11 11 9 9 6 9 10 11 12 14 14 14 14 13 11 10 11 11 11 10 10 9 9 8 7 7 6 6 6 5 5 5 5 5 4 4 3 2 2 2 1 1 1 2 3 4 4 4 3 3 3 3 4
5 5 4 4 7 4 7 8 6 9 7 6 2 4 3 4 9 13 9 7 7 7 10 12 11 10 10 10 13 14 14 14 13 13 13 13 13 12 12 12 12 12 12 12 13 12 12 11 11 11 11 10 10 9 9 9 8 7 6 6 6 6 5 5 5 4 4 4 3 3 3 2 2 1 1 0 1 3 4 4 4 5 4 4 4 4
6 6 3 2 1 4 5 7 6 3 5 1 4 4 5 8 12 14 11 8 6 7 8 10 10 11 11 11 12 13 15 14 13 12 12 11 11 10 6 4 5 10 12 11 12 12 12 12 11 11 10 9 10 10 10 10 8 7 7 6 6 5 5 4 4 5 4 3 2 3 2 1 2 1 0 1 1 3 3 4 4 5 5 6 5 6
6 5 5 5 3 6 5 9 2 4 5 5 4 6 3 4 5 2 3 4 4 3 7 11 12 12 12 12 12 12 13 12 11 10 9 10 6 6 8 7 7 6 3 7 10 10 12 13 13 11 10 10 11 10 10 9 9 8 7 7 6 6 5 5 5 5 4 3 3 3 4 3 3 2 2 1 3 3 4 4 5 5 5 6 6 6
0 4 4 6 3 3 5 7 3 4 6 5 4 5 3 2 4 3 6 6 4 4 7 11 12 12 12 11 10 9 8 7 7 7 7 8 8 9 9 8 8 9 9 8 7 7 8 8 8 10 10 10 10 11 10 10 9 8 7 7 7 7 6 6 6 6 6 5 5 4 3 3 4 4 5 4 5 5 4 4 4 5 5 6 7 8
4 4 2 4 2 4 6 7 7 7 2 3 7 5 3 1 4 3 3 5 5 5 5 9 10 10 10 9 8 5 5 4 6 7 6 7 8 8 8 8 9 9 9 9 10 10 9 9 9 9 8 9 11 11 11 11 10 9 8 8 8 8 6 6 7 7 7 7 6 6 5 4 4 4 5 5 5 4 4 4 5 6 5 6 6 6
2 0 1 1 1 1 5 8 6 2 3 2 2 2 4 3 1 4 5 5 10 6 5 7 8 7 5 3 4 1 5 3 7 6 5 6 7 8 8 8 8 9 9 9 10 10 9 9 9 10 10 10 10 10 10 9 9 9 8 8 8 7 7 6 6 6 6 6 6 6 5 4 5 5 5 5 5 4 4 3 5 6 7 6 6 7
2 1 3 8 6 2 2 3 1 2 3 2 3 4 4 2 3 5 6 8 10 9 7 7 8 5 4 3 1 3 7 8 8 7 5 5 5 7 6 7 7 7 8 8 8 9 8 8 8 8 9 8 9 9 9 8 8 8 7 7 7 7 6 6 6 7 7 7 7 7 6 5 5 6 6 7 6 5 5 5 5 5 7 7 7 8
2 0 1 1 6 8 8 8 5 4 3 3 1 2 1 2 4 3 6 7 11 11 8 8 9 8 8 9 8 8 7 7 7 6 6 6 7 6 6 6 6 6 6 6 6 6 7 7 6 7 7 7 8 8 8 8 8 8 8 8 8 8 7 7 7 8 8 8 8 8 8 7 6 5 5 6 6 7 7 6 7 6 7 7 6 7
4 3 2 2 1 1 2 4 2 6 4 3 3 4 1 5 4 6 9 10 9 10 9 9 8 8 7 8 8 8 7 7 6 6 5 5 6 7 7 7 7 8 8 8 8 7 8 8 7 8 8 7 7 6 7 8 9 8 8 8 9 9 8 7 8 9 9 9 9 9 8 8 8 6 5 5 6 7 8 8 8 9 8 8 8 8
6 3 1 2 5 4 6 6 1 5 3 3 5 1 6 8 7 8 9 10 8 7 7 7 8 7 7 6 6 6 6 5 5 5 5 5 6 6 6 6 7 7 7 7 7 7 8 7 7 7 7 7 6 7 6 7 8 8 9 10 9 9 9 9 9 8 9 9 9 9 9 9 8 8 7 7 6 6 7 9 10 9 9 10 10 9
8 5 4 1 3 3 4 4 4 3 4 5 8 10 10 9 7 7 7 8 8 6 5 7 7 7 6 5 5 5 3 5 5 5 5 5 6 6 7 7 7 7 7 7 6 6 6 6 7 7 7 6 7 7 6 6 7 9 10 9 9 10 10 10 10 10 10 10 10 10 10 9 9 8 8 8 8 8 8 9 10 11 11 11 12 11
3 4 2 4 6 9 9 8 6 6 7 8 8 9 10 10 9 8 8 8 8 8 6 6 6 6 6 5 3 3 4 4 4 4 4 4 4 4 4 5 5 5 5 6 6 7 8 7 7 6 7 8 8 7 6 6 7 9 9 9 9 9 10 10 11 11 11 11 11 11 11 11 12 11 10 10 9 9 9 9 9 10 11 12 12 12
4 0 1 4 7 3 4 6 8 9 8 9 9 9 10 9 9 8 9 8 7 7 7 6 6 5 5 5 4 3 3 3 3 3 3 3 4 4 5 5 6 7 7 8 8 9 8 8 8 8 10 10 9 8 8 8 8 8 8 9 9 9 10 10 11 11 12 12 12 13 13 13 12 11 11 10 9 10 10 9 10 11 12 13 12 13
6 0 4 5 3 0 7 8 8 7 6 5 6 6 7 8 8 8 7 7 6 6 5 5 4 4 2 4 4 3 3 3 4 5 4 4 4 4 5 6 8 8 8 8 8 9 9 10 10 11 11 11 10 9 9 8 8 9 9 10 10 10 10 10 9 10 11 12 12 11 12 12 12 12 12 12 11 11 11 11 11 11 12 13 13 12
4 4 1 1 4 7 9 8 7 8 7 5 5 5 6 6 7 7 7 7 6 6 5 5 5 4 4 4 3 3 3 4 5 5 5 4 4 5 6 7 7 8 8 9 9 9 8 8 8 9 9 8 8 8 8 9 9 9 10 10 10 10 11 11 13 13 14 12 10 11 12 12 13 12 12 12 12 12 12 12 11 10 10 10 11 8
4 2 3 3 5 5 5 8 10 5 6 7 6 6 6 6 6 6 4 4 3 3 3 3 4 4 4 4 3 4 4 4 5 6 6 5 5 6 6 6 7 7 8 7 7 7 6 6 7 8 8 8 9 9 10 11 11 11 11 11 11 11 12 13 13 13 13 13 13 12 10 10 12 13 12 12 13 12 11 3 3 3 5 7 6 8
3 3 3 2 2 1 6 11 4 4 5 7 8 7 5 4 4 3 3 2 3 2 2 2 2 3 3 4 4 3 4 4 6 6 6 6 6 5 5 5 6 6 6 6 6 6 7 8 8 9 10 10 10 10 11 12 13 13 13 12 12 13 13 13 12 12 13 13 12 12 13 13 12 12 12 13 13 11 12 9 5 4 5 5 5 5
Wind_Direction
178 206 195 206 206 191 199 218 300 33 322 340 224 234 219 221 191 197 141 110 176 247 226 218 221 230 225 199 179 175 176 187 192 183 187 178 183 192 198 195 182 174 176 153 145 167 182 173 162 156 168 179 188 184 179 181 164 140 179 167 186 172 165 149 150 154 154 153 150 151 148 138 144 138 133 132 119 109 92 93 105 117 105 110 108 111
226 223 208 208 210 190 191 190 282 259 271 226 216 220 207 215 220 184 144 129 167 246 221 217 227 224 226 166 174 168 180 193 193 190 192 188 186 193 195 191 182 172 157 145 146 167 180 174 171 162 171 176 184 190 185 188 174 166 183 185 168 160 165 155 153 151 157 153 151 150 144 141 135 138 147 132 129 113 108 106 103 103 112 111 109 107
211 221 205 197 86 81 84 189 206 232 227 224 232 206 229 198 220 98 134 151 171 221 246 200 219 217 161 186 170 182 187 195 197 200 195 195 190 191 188 185 178 168 160 153 162 166 178 174 171 167 177 184 192 188 190 181 179 151 188 185 169 161 169 155 152 162 153 147 145 148 137 143 131 113 107 115 111 124 119 111 109 107 106 112 111 113
211 220 213 158 141 156 174 200 210 223 238 223 212 228 212 184 200 177 155 173 160 237 292 187 223 159 136 167 174 182 200 184 190 202 198 201 200 194 185 181 183 172 166 172 166 172 172 189 171 172 162 201 194 192 191 189 180 166 197 176 166 170 188 160 161 163 147 137 125 116 118 114 121 120 114 117 124 116 125 122 111 98 97 88 94 103
211 65 89 161 182 212 204 195 210 219 215 217 234 223 220 172 209 300 121 131 141 197 249 234 213 181 180 174 176 163 143 186 199 209 209 200 206 192 178 184 187 182 177 174 171 179 178 171 165 161 136 222 204 194 195 192 185 181 172 182 183 179 177 165 158 157 147 132 127 116 117 117 117 130 138 142 136 134 121 125 130 112 101 102 97 96
238 111 144 197 195 213 220 208 215 222 222 199 214 239 249 219 229 177 142 197 210 190 186 214 195 203 172 183 184 150 178 202 194 204 207 209 201 193 191 184 184 192 186 185 183 189 183 159 147 193 165 226 208 199 195 189 186 182 176 173 191 178 168 166 161 156 158 147 142 145 147 150 153 148 153 146 142 148 145 113 116 117 110 94 84 85
249 123 197 182 194 205 218 230 197 214 228 206 192 212 229 240 223 249 214 219 214 226 153 219 241 171 165 182 177 173 183 194 191 209 205 204 206 203 196 181 185 188 186 194 190 186 189 169 154 183 180 203 216 199 188 187 187 183 183 176 179 170 168 164 161 163 162 151 154 157 158 157 153 145 134 122 126 122 116 123 121 113 107 101 101 83
214 182 186 216 215 220 221 220 187 207 228 208 105 198 210 221 224 223 233 233 245 61 123 235 245 219 175 173 168 169 187 194 198 205 212 205 202 201 196 185 180 184 187 188 196 182 191 180 173 179 187 205 207 190 181 182 182 185 169 177 178 176 177 170 165 168 167 155 158 162 156 150 147 137 131 135 128 123 127 126 129 126 121 107 97 98
189 185 208 203 216 220 209 212 166 201 224 82 106 194 210 214 212 215 221 221 256 218 195 201 216 236 188 125 142 167 187 196 199 200 202 202 197 195 196 190 181 182 181 188 188 192 191 186 195 187 194 200 191 182 175 161 149 149 153 159 174 185 180 170 169 170 167 157 159 160 148 145 131 133 137 135 133 132 131 129 122 109 109 103 88 87
187 213 204 211 210 205 181 85 209 187 222 109 133 154 154 190 202 223 221 221 193 221 214 190 212 238 181 142 168 187 201 200 189 195 190 192 195 194 190 188 182 177 177 182 190 183 184 184 190 198 200 197 193 177 147 128 115 117 133 132 77 34 20 146 166 173 163 154 156 151 149 139 135 137 136 136 134 135 141 130 125 123 118 115 114 97
70 89 346 247 219 333 57 64 297 215 245 58 186 184 171 191 189 206 237 237 213 225 223 169 186 255 211 167 171 184 153 113 140 172 164 183 194 193 188 188 184 182 175 175 174 176 171 179 188 195 202 201 185 154 115 95 101 107 97 90 91 97 72 23 359 299 169 152 153 152 147 142 138 139 138 137 141 138 141 134 130 123 114 110 108 104
215 184 214 204 253 137 220 135 118 277 194 213 197 201 186 186 187 211 205 208 226 225 156 145 217 222 237 164 154 91 84 74 75 125 133 164 189 200 190 189 185 181 178 171 168 173 165 169 184 194 202 198 118 78 76 74 85 91 99 123 146 143 129 113 100 315 278 152 151 151 149 144 145 144 143 141 141 144 138 135 131 125 126 121 114 108
219 217 221 184 180 222 202 214 138 180 188 219 211 208 205 190 199 207 194 212 219 233 116 139 207 213 226 46 117 111 84 76 44 18 37 27 135 156 210 202 184 177 170 168 166 166 166 179 184 195 203 136 94 89 103 115 126 122 134 166 62 54 90 131 153 175 270 198 159 157 152 146 148 146 141 141 141 140 138 139 137 139 131 131 124 109
211 218 210 209 181 210 236 222 151 185 190 203 209 202 213 208 201 223 205 219 225 127 113 161 186 235 203 125 70 88 71 57 58 51 3 341 335 22 208 191 179 173 170 166 161 160 168 179 181 182 165 90 106 114 115 128 97 89 76 70 84 192 164 173 165 160 214 203 177 164 159 148 147 143 143 141 139 141 137 137 140 139 134 129 121 113
208 189 208 200 212 173 214 241 200 208 183 204 213 214 220 241 222 209 227 216 223 230 139 126 207 213 209 106 75 65 78 82 88 102 90 92 87 145 176 163 164 169 157 143 143 149 164 158 170 128 86 94 114 129 152 145 128 117 130 145 173 187 215 189 173 176 195 191 178 165 156 152 143 138 141 138 138 142 143 142 140 133 135 131 129 119
229 246 159 181 41 168 210 215 252 217 204 204 232 242 231 237 229 253 353 313 251 200 168 172 236 308 233 115 90 94 96 88 101 105 118 106 111 119 126 132 132 131 129 131 143 141 142 146 132 117 107 129 137 148 169 147 153 169 166 163 165 172 203 198 182 183 187 177 166 156 150 144 134 133 133 136 142 147 151 146 141 138 138 133 129 125
190 232 124 160 175 212 217 175 216 228 221 162 208 214 227 348 248 151 173 105 299 258 231 153 211 201 102 170 117 123 111 94 95 100 105 108 113 116 111 117 126 125 128 143 138 125 116 105 86 96 119 127 128 151 191 167 163 160 140 155 167 181 191 191 184 180 178 170 164 156 153 145 138 140 143 146 151 155 157 150 145 146 141 137 136 136
256 215 134 179 193 163 256 242 215 209 291 162 215 208 92 24 314 244 243 162 230 232 209 177 210 201 192 182 142 143 133 97 88 92 97 109 116 108 107 118 125 129 130 135 120 103 93 91 89 111 132 143 144 154 205 156 137 131 155 177 190 187 176 182 177 165 166 162 158 156 158 155 151 151 149 151 158 162 167 159 151 149 153 149 141 144
226 247 161 193 123 120 164 193 195 194 266 259 272 131 205 183 211 197 250 219 221 220 221 194 209 221 207 184 170 173 147 97 98 102 113 106 97 92 93 95 103 110 118 121 114 99 93 79 77 109 139 158 137 190 240 113 106 162 192 188 174 156 168 161 147 138 136 154 154 158 156 151 156 160 157 159 164 167 175 165 150 151 162 150 142 145
203 248 162 137 204 147 186 203 217 187 185 219 269 200 223 257 232 205 209 248 240 230 230 197 198 226 208 93 147 152 118 115 116 125 102 96 89 91 98 107 110 116 122 123 109 105 102 104 106 142 140 146 167 226 288 88 107 213 258 181 142 105 100 118 121 124 133 146 146 150 156 166 168 168 166 165 168 170 167 161 160 167 166 162 148 147
220 219 255 129 141 168 209 198 225 201 190 184 211 216 187 228 22 293 206 241 237 247 222 228 218 217 90 46 79 97 128 133 137 126 113 96 89 80 83 105 113 114 111 101 105 108 107 97 112 146 140 143 158 169 82 69 139 233 275 31 39 27 63 98 113 128 134 150 159 168 179 172 176 173 171 171 167 169 159 168 166 176 173 168 160 156
220 192 238 194 184 214 213 46 3 342 316 227 212 221 214 210 209 214 228 191 242 242 237 231 236 121 71 48 67 96 89 137 148 134 123 111 96 90 98 109 118 112 97 94 96 103 103 102 114 131 139 145 156 160 135 135 42 106 319 334 1 7 307 14 34 109 142 153 154 172 176 174 175 177 174 171 168 166 159 168 171 173 187 180 166 168
325 228 236 226 222 249 81 81 50 5 298 330 278 236 227 227 230 227 244 201 213 235 284 251 266 124 54 49 64 87 136 134 146 145 132 118 102 91 90 100 94 92 99 104 107 109 107 116 130 139 139 143 152 151 141 144 157 173 208 243 175 226 234 223 240 206 131 153 174 178 179 179 182 181 177 175 174 176 166 167 171 176 185 187 171 175
262 239 220 236 213 141 151 121 22 314 284 223 216 281 240 233 228 242 247 222 209 192 221 211 234 124 89 57 64 92 128 141 149 148 143 122 113 104 110 109 110 110 108 103 97 96 103 119 131 121 123 124 128 135 140 151 164 171 179 192 189 193 206 209 215 220 183 173 183 196 204 198 195 189 186 184 185 183 172 169 175 179 185 187 180 176
179 16 298 218 222 202 199 192 189 140 223 235 226 142 340 325 266 37 82 196 242 216 233 230 233 140 95 75 74 105 128 141 144 142 153 140 120 119 116 113 114 113 106 98 93 88 85 79 88 110 102 102 107 108 111 124 138 150 150 171 194 177 172 177 170 179 187 188 186 186 204 206 208 200 194 195 193 190 185 176 180 184 189 184 190 185
76 349 304 234 217 213 213 207 211 197 197 116 89 131 65 242 194 201 223 212 242 190 222 234 208 80 104 89 90 99 108 117 129 131 137 136 126 124 117 114 112 113 110 104 86 75 67 67 76 93 103 98 89 86 92 94 92 112 139 148 172 160 160 171 166 159 161 162 175 183 193 196 201 203 195 197 201 198 192 189 193 189 193 192 195 193
71 53 14 5 347 1 5 8 28 322 150 175 124 112 89 175 289 275 263 238 230 179 215 225 191 138 123 106 99 92 113 118 127 118 118 117 103 110 125 128 121 113 108 101 89 84 79 74 72 84 87 90 87 85 85 92 108 118 121 116 168 147 123 110 141 149 155 158 172 174 191 199 202 198 195 195 202 207 212 209 207 203 199 196 201 197
110 77 11 37 55 54 39 33 32 13 113 72 115 80 69 67 209 252 244 263 322 239 230 120 135 133 114 108 106 109 108 100 93 111 120 121 123 127 121 121 118 110 103 95 89 83 81 80 81 83 85 86 93 97 97 90 86 89 98 107 85 82 91 113 129 131 148 155 174 186 188 194 201 206 209 211 211 213 224 228 225 226 213 204 206 203
152 145 185 129 94 84 50 43 42 63 62 75 70 67 63 60 85 100 37 4 334 273 263 122 125 109 103 103 109 104 101 105 109 105 113 118 122 126 127 123 119 107 93 88 84 83 82 80 78 78 76 82 90 91 93 97 96 97 96 87 88 87 89 96 108 127 129 136 144 147 155 157 165 196 200 209 215 215 213 237 236 228 222 208 208 208
160 158 163 154 137 123 81 54 39 52 64 72 66 63 60 62 66 72 68 53 51 67 78 109 96 90 85 107 101 93 88 102 110 122 121 121 119 121 121 117 109 101 95 90 87 84 82 81 78 74 73 69 66 70 74 76 78 83 84 85 86 92 94 94 92 96 104 117 103 111 123 136 158 185 188 213 218 217 217 216 216 223 221 217 215 208
278 155 173 157 151 139 109 113 74 39 24 48 25 26 37 55 69 58 67 50 78 82 88 99 94 89 78 95 96 96 104 103 102 103 105 107 116 112 108 103 101 99 98 95 92 89 86 84 83 82 78 75 69 66 66 67 70 72 72 71 79 79 81 81 90 97 92 89 87 87 101 129 133 178 199 204 212 219 226 219 209 217 222 222 220 221
204 142 185 186 202 186 185 115 92 58 23 337 318 355 13 19 50 33 32 3 357 110 123 124 105 99 113 110 100 96 94 89 86 86 89 93 95 93 94 97 99 99 97 93 90 87 84 80 77 76 77 76 76 74 72 72 74 71 66 59 56 59 66 71 73 80 87 88 105 106 109 130 157 202 183 205 213 217 222 224 216 216 223 224 225 224
184 151 181 195 223 214 165 149 147 66 326 288 248 110 70 81 97 94 62 36 25 339 181 159 92 115 128 125 110 96 85 73 64 66 72 62 51 58 59 57 71 81 80 78 78 77 74 70 67 66 68 71 67 66 65 69 68 60 59 64 62 70 68 68 65 69 69 68 81 91 97 125 121 35 199 230 219 208 222 228 227 220 221 244 347 340
174 179 192 188 229 167 140 140 130 182 227 235 57 266 14 116 153 116 64 25 23 358 56 74 110 118 128 127 110 101 86 78 79 67 62 76 77 59 57 69 62 59 61 60 61 61 59 58 58 57 57 60 62 59 57 52 53 62 58 56 61 53 58 68 68 55 56 58 65 65 68 73 85 103 104 190 216 216 220 216 216 211 185 117 150 158
195 192 231 200 229 180 143 135 179 216 222 49 275 115 150 102 106 103 91 61 70 88 107 109 116 115 102 97 99 98 92 85 73 68 61 59 65 67 62 43 28 42 55 58 54 50 52 53 49 48 47 48 51 52 49 44 37 39 53 51 53 52 46 46 54 62 57 52 48 56 34 34 52 37 71 158 202 222 226 223 203 194 180 212 200 177
162 179 96 11 306 99 173 177 194 207 54 55 88 117 117 127 122 110 83 71 69 107 117 111 111 111 112 110 108 107 106 98 80 67 61 52 54 65 62 56 52 31 28 30 33 33 33 36 40 35 37 38 40 40 37 34 24 30 37 36 39 40 40 32 42 49 34 27 20 13 21 360 45 65 177 230 238 231 217 205 198 195 184 190 180 167
180 155 182 185 186 219 212 210 230 94 158 111 126 135 178 150 181 234 136 94 70 87 133 123 120 121 121 122 124 123 121 111 94 81 75 82 90 77 71 67 74 89 85 30 27 32 25 16 22 23 27 32 30 30 26 20 14 15 23 26 23 17 27 32 32 25 22 4 11 359 335 326 289 270 246 218 230 225 233 220 208 201 184 184 183 178
289 223 183 207 190 242 228 202 178 198 232 154 112 114 31 9 356 329 105 104 110 93 126 132 130 129 130 132 137 144 160 140 101 90 71 65 64 69 74 73 65 54 56 60 56 55 47 36 22 19 12 16 26 23 15 10 7 3 9 13 9 5 12 19 23 14 17 4 352 338 336 327 316 295 284 273 262 260 243 222 206 191 182 176 169 167
53 47 98 238 173 193 234 233 218 224 88 63 115 131 73 41 273 306 217 132 138 129 133 140 133 138 138 144 145 176 217 184 104 97 71 60 59 49 53 50 45 44 45 41 31 22 24 20 16 16 19 19 17 13 8 4 0 1 357 1 358 354 2 12 5 3 359 352 345 332 326 315 315 313 304 284 268 278 258 209 188 171 182 175 171 156
162 182 200 213 166 209 240 226 223 39 90 100 79 24 20 356 167 252 214 172 150 147 132 143 136 136 129 129 180 151 334 206 119 92 70 66 65 55 40 35 31 26 28 25 23 10 4 5 4 8 10 11 9 3 360 358 355 352 347 347 343 340 347 355 350 343 337 331 327 319 315 314 308 308 302 299 300 279 260 225 189 176 190 187 190 174
105 144 213 227 225 187 213 238 21 138 92 80 18 1 21 269 255 202 231 112 142 130 125 114 110 102 115 128 158 99 68 60 77 88 76 55 55 50 44 36 28 22 19 16 15 359 355 356 0 357 358 354 352 349 348 347 344 337 335 330 323 324 330 334 327 326 324 318 311 309 314 320 318 320 314 300 291 286 261 247 235 206 206 202 203 183
97 54 155 239 226 214 208 221 218 73 48 47 93 33 301 190 180 228 74 122 121 123 112 104 93 79 74 69 72 82 85 77 74 64 55 43 35 32 17 17 15 14 17 16 3 2 354 342 345 346 350 348 343 339 335 333 326 320 319 316 309 314 317 317 319 314 310 307 308 311 310 310 316 316 307 305 297 281 268 255 244 233 221 221 214 199
25 302 239 189 61 26 203 217 197 236 93 345 23 150 42 265 70 104 125 111 113 106 104 89 80 76 74 81 74 79 79 67 56 44 38 31 16 10 4 4 4 357 357 353 350 5 353 338 343 346 340 337 337 335 328 322 310 304 301 295 302 307 310 313 308 303 303 305 303 300 298 296 295 296 294 292 292 283 272 260 241 231 227 221 212 200
8 283 179 89 1 262 213 212 239 34 92 40 308 136 73 74 112 118 116 116 108 109 99 95 73 64 63 69 78 73 61 52 48 31 12 15 4 359 1 1 360 354 352 351 348 356 345 331 335 332 330 328 332 327 321 310 304 302 298 293 298 300 299 297 294 296 291 289 288 288 287 285 282 278 276 276 277 273 268 259 249 235 225 218 218 211
22 34 359 17 49 10 26 62 94 110 78 74 73 88 92 98 108 111 104 110 122 98 83 88 84 69 53 58 66 48 58 47 25 22 6 359 359 2 359 357 353 349 345 342 340 348 333 331 326 324 324 329 329 325 320 316 306 305 297 300 303 295 292 289 288 285 283 280 280 279 278 278 277 275 270 267 264 262 256 252 246 240 233 222 217 214
69 29 9 91 87 93 73 73 96 112 103 93 91 93 93 90 82 91 98 97 70 63 58 74 75 67 58 35 37 63 48 33 25 23 9 4 0 5 350 343 345 343 338 335 337 348 333 327 324 325 329 329 331 326 321 315 310 303 305 310 308 304 302 297 290 282 276 274 272 273 274 274 272 268 265 261 257 255 256 255 251 243 234 230 225 220
54 174 193 110 135 190 90 115 107 110 117 102 92 81 70 68 71 71 76 76 81 78 77 72 74 74 66 60 57 56 68 53 39 30 11 4 2 357 350 347 346 347 344 347 347 343 336 336 332 335 332 330 329 326 321 317 312 307 307 306 303 301 300 300 296 289 282 276 272 266 262 261 259 260 258 254 251 249 247 245 243 246 241 237 230 225
110 328 101 110 135 64 122 133 122 102 111 120 111 96 92 89 88 89 94 102 103 98 102 111 125 96 87 71 54 51 67 62 31 19 8 8 2 352 349 353 348 349 348 344 341 341 332 334 334 331 330 327 328 327 325 323 321 318 316 313 310 306 300 292 290 291 292 290 286 278 271 264 258 259 259 258 256 254 247 241 239 242 244 237 232 231
67 241 106 157 111 100 115 136 140 137 130 136 145 101 109 115 111 112 111 116 118 106 101 86 63 56 60 64 53 36 36 47 35 15 4 357 359 356 355 349 348 342 342 339 342 340 338 336 335 333 332 331 329 327 320 318 315 313 312 310 308 306 302 299 298 294 287 280 278 280 277 272 269 264 262 259 255 251 248 246 239 232 236 251 258 262
228 134 102 181 149 168 161 154 166 161 163 150 147 131 117 107 109 107 106 88 84 81 70 75 80 72 78 62 42 36 27 27 23 10 358 358 356 354 347 345 340 344 346 350 344 346 345 343 334 330 327 325 324 320 319 315 313 310 309 309 307 303 298 294 290 287 286 289 283 275 272 276 271 262 257 256 255 255 252 65 24 307 278 251 25 46
305 77 231 228 275 153 101 137 145 30 57 125 140 134 134 112 119 129 104 94 92 85 69 45 94 121 98 90 58 37 22 6 6 358 348 349 348 344 339 337 341 345 347 345 343 343 343 335 332 326 326 325 324 321 319 316 313 311 307 305 298 297 294 292 288 284 283 282 278 287 291 278 272 276 271 258 252 251 251 240 176 193 217 267 276 320